Content
SEND FEEDBACK

Daily
Averages
Monthly
Summary
United States of America

MILLEN, GEORGIA


Home > North America > United States > Georgia
Elevation: 194 feet     Latitude: 32 52N     Longitude: 081 58W

WEATHER
 
SELECT A DAY
Number of Records: 235,045;   Date Range: 1/16/04 - 7/26/14
 
SHARE

PRINT THIS DATA

[ ← Previous Day ]
WEATHER ALMANAC - JANUARY 23, 2013
[ Next Day → ]
[ °C ]   °F
Weather ElementAverageHighLow
Temperature44 °F59.2 °F (3:55 pm)30.2 °F (6:55 am)
Dewpoint30.3 °F38.7 °F (11:55 pm)24.3 °F (10:35 am)
Humidity62.2 %88 % (2:35 am)36 % (11:15 am)
Barometer30.31 in30.40 in (9:35 am)30.21 in (11:35 pm)
Wind Speed3.8 mph16.1 mph (1:35 pm)
Wind Gust19.6 mph (1:35 pm)
Weather ElementAverage
Visibility10 mi
Wind DirectionSSE (149 °)

Weather ElementTotal
Precipitation---
Heating Degree Days20.3 (Base 65)
Averaged from 68 records on January 23, 2013
WEATHER CONDITIONS BREAKOUT
WIND DIRECTION BREAKOUT
WEATHER BY HOUR - JANUARY 23, 2013
[ °C ]   °F
Local TimeTemperatureDewpointHumidityBarometerVisibilityWind DirectionWind SpeedGust SpeedPrecipitationEventsConditions
12:35 AM36.7 °F26.4 °F66 %30.31 in10.0 miCalmClear
12:55 AM35.8 °F27.3 °F71 %30.31 in10.0 miCalmClear
1:15 AM34.2 °F26.2 °F73 %30.31 in10.0 miCalmClear
1:35 AM34.7 °F27.9 °F76 %30.31 in10.0 miCalmClear
1:55 AM33.8 °F28.0 °F79 %30.31 in10.0 miCalmClear
2:15 AM32.9 °F26.6 °F78 %30.31 in10.0 miCalmClear
2:35 AM32.4 °F29.1 °F88 %30.32 in10.0 miCalmClear
2:55 AM32.9 °F29.1 °F86 %30.32 in10.0 miCalmClear
3:15 AM32.0 °F28.6 °F87 %30.32 in10.0 miCalmClear
3:35 AM32.0 °F28.0 °F85 %30.32 in10.0 miCalmClear
3:55 AM32.0 °F27.9 °F85 %30.32 in10.0 miCalmClear
4:15 AM32.0 °F28.0 °F85 %30.32 in10.0 miWNW (300°)3.5 mphClear
4:35 AM32.0 °F27.5 °F83 %30.32 in10.0 miCalmClear
4:55 AM32.0 °F27.1 °F82 %30.32 in10.0 miCalmClear
5:15 AM30.4 °F27.3 °F88 %30.32 in10.0 miCalmClear
5:35 AM31.1 °F27.1 °F85 %30.33 in10.0 miNW (310°)3.5 mphClear
5:55 AM30.4 °F26.4 °F85 %30.34 in10.0 miCalmClear
6:15 AM30.7 °F25.7 °F82 %30.35 in10.0 miCalmClear
6:35 AM31.1 °F26.1 °F82 %30.35 in10.0 miCalmClear
6:55 AM30.2 °F26.6 °F86 %30.36 in10.0 miCalmClear
7:15 AM30.6 °F25.5 °F82 %30.36 in10.0 miCalmClear
7:55 AM30.4 °F25.9 °F83 %30.37 in10.0 miCalmClear
8:15 AM32.2 °F26.8 °F80 %30.37 in10.0 miCalmClear
8:35 AM34.3 °F26.8 °F74 %30.38 in10.0 miCalmClear
8:55 AM36.7 °F27.5 °F69 %30.39 in10.0 miCalmClear
9:15 AM37.9 °F28.0 °F68 %30.39 in10.0 miCalmClear
9:35 AM42.3 °F25.7 °F52 %30.40 in10.0 miNorth (350°)5.8 mphClear
9:55 AM44.4 °F25.0 °F46 %30.40 in10.0 miNorth (350°)3.5 mphClear
10:15 AM46.4 °F24.4 °F42 %30.40 in10.0 miNNW (340°)3.5 mphClear
10:35 AM48.6 °F24.3 °F39 %30.40 in10.0 miNW (320°)4.6 mphClear
10:55 AM50.4 °F24.6 °F37 %30.39 in10.0 miNNW (330°)11.5 mphClear
11:15 AM51.6 °F25.2 °F36 %30.39 in10.0 miNW (320°)12.7 mph16.1 mphClear
11:35 AM52.7 °F26.2 °F36 %30.38 in10.0 miNW (320°)11.5 mph18.4 mphClear
11:55 AM53.2 °F27.5 °F37 %30.37 in10.0 miNW (310°)10.4 mph17.3 mphClear
12:15 PM54.1 °F28.6 °F37 %30.35 in10.0 miNW (310°)10.4 mphClear
12:35 PM55.4 °F30.2 °F38 %30.34 in10.0 miWNW (300°)10.4 mphClear
12:55 PM55.8 °F31.1 °F39 %30.33 in10.0 miNW (320°)12.7 mph18.4 mphClear
1:15 PM56.5 °F31.8 °F39 %30.32 in10.0 miNW (320°)11.5 mph18.4 mphClear
1:35 PM57.4 °F32.2 °F39 %30.30 in10.0 miNW (310°)16.1 mph19.6 mphClear
1:55 PM57.2 °F32.2 °F39 %30.29 in10.0 miNW (320°)13.8 mph19.6 mphClear
2:15 PM57.6 °F32.0 °F38 %30.28 in10.0 miWNW (300°)12.7 mph18.4 mphClear
2:35 PM57.6 °F32.4 °F39 %30.27 in10.0 miWest (270°)5.8 mphClear
2:55 PM57.9 °F32.4 °F38 %30.26 in10.0 miWSW (240°)3.5 mphClear
3:15 PM58.3 °F32.5 °F38 %30.26 in10.0 miWNW (300°)8.1 mphClear
3:35 PM58.6 °F32.7 °F38 %30.26 in10.0 miWNW (300°)4.6 mphClear
3:55 PM59.2 °F33.4 °F38 %30.26 in10.0 miWest (280°)9.2 mph18.4 mphClear
4:15 PM58.5 °F33.8 °F39 %30.26 in10.0 miWest (280°)9.2 mphClear
4:35 PM58.3 °F33.8 °F40 %30.26 in10.0 miWest (280°)9.2 mphClear
4:55 PM57.6 °F33.3 °F40 %30.26 in10.0 miWNW (300°)10.4 mphClear
5:15 PM56.7 °F33.1 °F41 %30.26 in10.0 miWNW (290°)6.9 mphClear
5:35 PM55.2 °F33.8 °F44 %30.26 in10.0 miWest (260°)3.5 mphClear
5:55 PM54.0 °F33.4 °F46 %30.25 in10.0 miWest (260°)3.5 mphClear
6:15 PM52.3 °F33.8 °F49 %30.25 in10.0 miCalmClear
6:35 PM47.5 °F33.6 °F59 %30.26 in10.0 miCalmClear
6:55 PM45.1 °F34.0 °F65 %30.26 in10.0 miCalmClear
7:15 PM42.4 °F34.9 °F75 %30.26 in10.0 miCalmClear
7:35 PM41.9 °F35.1 °F77 %30.26 in10.0 miCalmClear
7:55 PM40.8 °F35.6 °F82 %30.26 in10.0 miCalmClear
8:35 PM44.4 °F35.1 °F70 %30.25 in10.0 miSW (220°)3.5 mphClear
8:55 PM46.6 °F35.6 °F66 %30.24 in10.0 miSW (230°)3.5 mphClear
9:15 PM46.6 °F35.6 °F66 %30.24 in10.0 miWSW (240°)3.5 mphClear
9:35 PM46.2 °F35.8 °F67 %30.24 in10.0 miCalmClear
9:55 PM45.7 °F36.0 °F69 %30.24 in7.0 miCalmClear
10:15 PM45.0 °F36.0 °F71 %30.24 in10.0 miCalmClear
10:35 PM44.8 °F36.1 °F72 %30.24 in10.0 miSW (230°)3.5 mphClear
10:55 PM45.0 °F36.5 °F72 %30.23 in10.0 miSW (230°)3.5 mphClear
11:35 PM45.3 °F37.6 °F74 %30.21 in10.0 miWSW (240°)3.5 mphClear
11:55 PM46.8 °F38.7 °F73 %30.21 in10.0 miWSW (250°)3.5 mphClear
Hourly data recorded from KJYL, located miles away from Millen, Georgia







STORIES FROM OUR PARTNERS